GW2217 Weather Reports


time (UTC)temp
C
wind
direction
speed
KPH
gust
KPH
rain 1hr
cm
rain 24hr
cm
rain mn
cm
humidity
%
barometer
mb
20260503225220 23 191 0.0 17.7 0.00 0.00 0.00 45 1038.2
20260503224720 23 161 1.6 17.7 0.00 0.00 0.00 41 1037.8
20260503224220 23 149 0.0 17.7 0.00 0.00 0.00 44 1038.4
20260503223720 24 157 0.0 17.7 0.00 0.00 0.00 44 1038.5
20260503223220 24 164 1.6 17.7 0.00 0.00 0.00 41 1038.3
20260503222720 25 160 0.0 17.7 0.00 0.00 0.00 44 1038.4
20260503222220 25 155 0.0 17.7 0.00 0.00 0.00 43 1038.4
20260503221205 25 211 0.0 17.7 0.00 0.00 0.00 44 1038.7
20260503220705 25 150 0.0 17.7 0.00 0.00 0.00 43 1038.7
20260503220205 25 157 0.0 17.7 0.00 0.00 0.00 46 1038.9
20260503215705 25 161 0.0 17.7 0.00 0.00 0.00 45 1039.0
20260503215205 25 181 0.0 17.7 0.00 0.00 0.00 46 1038.8
20260503214704 25 173 0.0 17.7 0.00 0.00 0.00 47 1039.0
20260503214205 25 172 1.6 17.7 0.00 0.00 0.00 46 1039.0
20260503213704 25 177 0.0 17.7 0.00 0.00 0.00 46 1039.1
20260503213204 25 181 0.0 17.7 0.00 0.00 0.00 47 1039.2
20260503212704 25 174 1.6 17.7 0.00 0.00 0.00 44 1039.1
20260503212203 25 134 0.0 17.7 0.00 0.00 0.00 47 1039.0
20260503211703 24 134 0.0 17.7 0.00 0.00 0.00 49 1039.4
20260503211204 24 132 0.0 17.7 0.00 0.00 0.00 48 1039.2
20260503210148 24 206 0.0 17.7 0.00 0.00 0.00 47 1039.4
20260503205648 24 158 1.6 17.7 0.00 0.00 0.00 47 1039.7
20260503205148 24 226 0.0 17.7 0.00 0.00 0.00 50 1039.6
20260503204131 23 178 0.0 17.7 0.00 0.00 0.00 50 1039.7
20260503203631 23 182 1.6 17.7 0.00 0.00 0.00 44 1039.7
20260503203130 23 204 1.6 17.7 0.00 0.00 0.00 48 1039.7
20260503202631 23 168 0.0 17.7 0.00 0.00 0.00 50 1039.6
20260503202130 23 113 1.6 17.7 0.00 0.00 0.00 51 1039.9
20260503201629 23 198 1.6 17.7 0.00 0.00 0.00 50 1040.2
20260503201130 23 169 0.0 17.7 0.00 0.00 0.00 50 1039.9
20260503200629 23 171 0.0 17.7 0.00 0.00 0.00 51 1040.0
20260503200128 23 184 0.0 17.7 0.00 0.00 0.00 50 1040.1
20260503195113 23 241 0.0 17.7 0.00 0.00 0.00 53 1040.3
20260503194613 22 244 0.0 17.7 0.00 0.00 0.00 54 1040.2
20260503194112 22 245 0.0 17.7 0.00 0.00 0.00 54 1040.3
20260503193611 22 245 0.0 17.7 0.00 0.00 0.00 55 1040.3
20260503193110 22 244 0.0 17.7 0.00 0.00 0.00 56 1040.1
20260503192609 22 247 0.0 17.7 0.00 0.00 0.00 54 1040.0
20260503192109 21 242 0.0 17.7 0.00 0.00 0.00 55 1040.2
20260503191609 21 165 0.0 17.7 0.00 0.00 0.00 55 1040.0
20260503191110 21 165 0.0 17.7 0.00 0.00 0.00 56 1040.1
20260503190055 21 177 0.0 17.7 0.00 0.00 0.00 57 1040.2
20260503185554 21 176 0.0 17.7 0.00 0.00 0.00 59 1040.4
20260503185055 21 175 0.0 17.7 0.00 0.00 0.00 58 1040.2
20260503184555 21 167 0.0 17.7 0.00 0.00 0.00 56 1040.2
20260503184053 20 162 1.6 17.7 0.00 0.00 0.00 55 1040.4
20260503183553 20 143 0.0 17.7 0.00 0.00 0.00 57 1040.1
20260503183053 20 143 0.0 17.7 0.00 0.00 0.00 57 1040.4
20260503182553 20 146 0.0 17.7 0.00 0.00 0.00 56 1040.5
20260503182053 21 145 0.0 17.7 0.00 0.00 0.00 57 1040.6
20260503181553 21 136 0.0 17.7 0.00 0.00 0.00 56 1040.6
20260503181053 21 114 0.0 17.7 0.00 0.00 0.00 57 1040.7
20260503180551 21 111 0.0 17.7 0.00 0.00 0.00 54 1040.7
20260503180051 21 180 0.0 17.7 0.00 0.00 0.00 57 1040.8
20260503175035 21 180 0.0 17.7 0.00 0.00 0.00 54 1041.0
20260503174534 21 156 0.0 17.7 0.00 0.00 0.00 56 1040.7
20260503173518 21 147 0.0 17.7 0.00 0.00 0.00 56 1040.7
20260503172504 21 241 0.0 17.7 0.00 0.00 0.00 56 1041.0
20260503172004 21 98 0.0 17.7 0.00 0.00 0.00 57 1040.8
20260503171504 21 166 0.0 17.7 0.00 0.00 0.00 56 1041.0
20260503171002 21 108 0.0 17.7 0.00 0.00 0.00 58 1041.0
20260503170502 21 169 1.6 17.7 0.00 0.00 0.00 56 1040.8
20260503150806 17 233 0.0 17.7 0.00 0.00 0.00 69 1041.4
20260503150306 17 208 0.0 17.7 0.00 0.00 0.00 72 1041.8
20260503140228 13 92 0.0 17.7 0.00 0.00 0.00 81 1040.8
20260503131154 13 91 0.0 17.7 0.00 0.00 0.00 78 1040.7
20260503130654 14 91 0.0 17.7 0.00 0.00 0.00 78 1040.5
20260503130153 14 91 0.0 17.7 0.00 0.00 0.00 78 1040.6
20260503110444 15 191 0.0 17.7 0.00 0.00 0.00 71 1041.0
20260503090332 16 155 0.0 17.7 0.00 0.00 0.00 61 1040.7
20260503081245 16 121 0.0 17.7 0.00 0.00 0.00 56 1040.6
20260503080745 16 121 0.0 17.7 0.00 0.00 0.00 56 1040.5
20260503080244 16 121 0.0 17.7 0.00 0.00 0.00 58 1040.9
20260503072725 16 121 0.0 17.7 0.00 0.00 0.00 57 1040.4
20260503072224 16 121 0.0 17.7 0.00 0.00 0.00 58 1040.6
20260503071723 16 121 0.0 17.7 0.00 0.00 0.00 58 1040.5
20260503071222 16 121 0.0 17.7 0.00 0.00 0.00 58 1040.4
20260503070721 16 121 0.0 17.7 0.00 0.00 0.00 59 1041.0
20260503070220 16 121 0.0 17.7 0.00 0.00 0.00 59 1040.6
20260503060158 16 121 0.0 17.7 0.00 0.00 0.00 67 1040.2
20260503054656 16 121 0.0 17.7 0.00 0.00 0.00 67 1040.5
20260503054156 16 121 0.0 17.7 0.00 0.00 0.00 67 1040.6
20260503053656 16 121 0.0 17.7 0.00 0.00 0.00 67 1040.0
20260503053155 16 121 0.0 17.7 0.00 0.00 0.00 66 1040.4
20260503052654 16 121 0.0 17.7 0.00 0.00 0.00 66 1040.4
20260503052154 16 121 0.0 17.7 0.00 0.00 0.00 66 1040.4
20260503051654 16 121 0.0 17.7 0.00 0.00 0.00 66 1040.5
20260503051153 16 121 0.0 17.7 0.00 0.00 0.00 66 1040.6
20260503050653 16 121 0.0 17.7 0.00 0.00 0.00 66 1040.6
20260503050153 16 121 0.0 17.7 0.00 0.00 0.00 66 1040.5
20260503045138 16 121 0.0 17.7 0.00 0.00 0.00 67 1040.4
20260503044638 16 121 0.0 17.7 0.00 0.00 0.00 66 1040.2
20260503044137 16 121 0.0 17.7 0.00 0.00 0.00 65 1040.1
20260503043636 16 121 0.0 17.7 0.00 0.00 0.00 64 1040.4
20260503043135 16 121 0.0 17.7 0.00 0.00 0.00 64 1040.4
20260503042635 16 121 0.0 17.7 0.00 0.00 0.00 64 1040.4
20260503042134 17 121 0.0 17.7 0.00 0.00 0.00 63 1040.2
20260503041633 17 121 0.0 17.7 0.00 0.00 0.00 63 1040.1
20260503041133 17 121 0.0 17.7 0.00 0.00 0.00 62 1040.3
20260503040632 17 121 0.0 17.7 0.00 0.00 0.00 62 1040.2
20260503040132 17 121 0.0 17.7 0.00 0.00 0.00 63 1039.9
20260503035631 17 121 0.0 17.7 0.00 0.00 0.00 62 1040.1
20260503035130 17 121 0.0 17.7 0.00 0.00 0.00 61 1039.9
20260503034629 17 121 0.0 17.7 0.00 0.00 0.00 60 1039.8
20260503033614 17 121 0.0 17.7 0.00 0.00 0.00 58 1039.9
20260503032557 18 121 0.0 17.7 0.00 0.00 0.00 56 1039.6
20260503032056 18 121 0.0 17.7 0.00 0.00 0.00 56 1039.7
20260503031555 18 121 0.0 17.7 0.00 0.00 0.00 57 1039.4
20260503031054 18 121 0.0 17.7 0.00 0.00 0.00 58 1039.6
20260503030554 18 121 0.0 17.7 0.00 0.00 0.00 58 1039.5
20260503030054 18 121 0.0 17.7 0.00 0.00 0.00 57 1039.5
20260503025553 18 121 0.0 17.7 0.00 0.00 0.00 56 1039.7
20260503025052 19 121 0.0 17.7 0.00 0.00 0.00 56 1039.5
20260503024552 19 121 0.0 17.7 0.00 0.00 0.00 56 1039.8
20260503024051 19 121 0.0 17.7 0.00 0.00 0.00 56 1039.6
20260503023551 19 121 0.0 17.7 0.00 0.00 0.00 56 1039.9
20260503023051 19 121 0.0 17.7 0.00 0.00 0.00 55 1039.5
20260503022550 19 121 0.0 17.7 0.00 0.00 0.00 54 1039.5
20260503021534 20 121 0.0 17.7 0.00 0.00 0.00 56 1039.6
20260503020004 20 121 0.0 17.7 0.00 0.00 0.00 54 1039.4
20260503014949 20 121 0.0 17.7 0.00 0.00 0.00 56 1039.3
20260503014449 20 121 0.0 17.7 0.00 0.00 0.00 56 1039.8
20260503013949 20 121 0.0 17.7 0.00 0.00 0.00 55 1039.7
20260503013448 20 121 0.0 17.7 0.00 0.00 0.00 55 1039.7
20260503012948 20 121 0.0 17.7 0.00 0.00 0.00 55 1039.6
20260503012448 20 121 0.0 17.7 0.00 0.00 0.00 56 1039.8
20260503011947 20 111 0.0 17.7 0.00 0.00 0.00 55 1039.9
20260503011446 20 111 0.0 17.7 0.00 0.00 0.00 56 1040.0
20260503010946 20 111 0.0 17.7 0.00 0.00 0.00 54 1039.9
20260503005930 20 158 0.0 17.7 0.00 0.00 0.00 51 1040.1
20260503005430 20 156 0.0 17.7 0.00 0.00 0.00 54 1040.1
20260503004929 21 154 0.0 17.7 0.00 0.00 0.00 53 1040.5
20260503004428 21 154 0.0 17.7 0.00 0.00 0.00 54 1040.1
20260503003927 21 154 0.0 17.7 0.00 0.00 0.00 53 1040.4
20260503003427 21 153 0.0 17.7 0.00 0.00 0.00 51 1040.1
20260503002926 21 145 0.0 17.7 0.00 0.00 0.00 50 1040.3
20260503002425 21 151 0.0 17.7 0.00 0.00 0.00 55 1040.4
20260503000854 21 150 0.0 17.7 0.00 0.00 0.00 53 1040.4
20260503000353 21 144 0.0 17.7 0.00 0.00 0.00 49 1040.7
20260502235853 21 8 1.6 17.7 0.00 0.00 0.00 54 1040.6
20260502235353 21 73 0.0 17.7 0.00 0.00 0.00 54 1040.6
20260502234853 21 67 0.0 17.7 0.00 0.00 0.00 53 1040.7
20260502233838 21 160 0.0 17.7 0.00 0.00 0.00 52 1040.8
20260502233337 21 155 0.0 17.7 0.00 0.00 0.00 52 1040.9
20260502232837 21 150 0.0 17.7 0.00 0.00 0.00 53 1040.9
20260502232336 21 150 0.0 17.7 0.00 0.00 0.00 50 1040.8
20260502231836 21 140 0.0 17.7 0.00 0.00 0.00 51 1040.8
20260502231336 21 123 1.6 17.7 0.00 0.00 0.00 49 1041.4
20260502230835 21 139 1.6 17.7 0.00 0.00 0.00 50 1040.9
20260502230335 21 163 0.0 17.7 0.00 0.00 0.00 51 1041.2
20260502225834 21 163 0.0 17.7 0.00 0.00 0.00 53 1041.2
20260502225334 21 239 0.0 17.7 0.00 0.00 0.00 56 1041.3